Date String (YYYY-MM-DD hh:mm:ss) UTC,Instrument flags,Ambient pressure (hPa),Sample flow (lpm),Bypass flow (lpm),Sample temperature (°C),Ambient temperature (°C),ASC tube jacket temperature (°C),LED temperature (°C),Box temperature (°C),Sample RH (%),Span deviation,Mass concentration (μg/m³),Mass concentration (μg/m³),Mass concentration (μg/m³)
DateTimeUTC,F1_M11,P_M11,Q1_M11,Q2_M11,T1_M11,T2_M11,T3_M11,T4_M11,T5_M11,U1_M11,ZSPAN_M11,X0_M11,X2_M11,X1_M11
2022-04-20 09:00:00,,0816.0,5.01,0.00,28.9,28.1,00.0,37.8,30.7,10.0,0000.0,0034.55,0010.34,0003.85
2022-04-20 09:01:00,,0816.1,4.98,0.00,28.9,28.1,00.0,37.8,30.7,10.0,0000.0,0035.02,0010.37,0003.84
2022-04-20 09:02:00,,0816.0,5.01,0.00,28.9,28.1,00.0,37.8,30.7,09.9,0000.0,0035.67,0010.40,0003.83
2022-04-20 09:03:00,,0816.0,4.99,0.00,28.9,28.1,00.0,37.8,30.7,09.8,0000.0,0035.45,0010.36,0003.82
2022-04-20 09:04:00,,0816.3,5.00,0.00,28.9,28.2,00.0,37.8,30.7,09.8,0000.0,0034.98,0010.29,0003.82
2022-04-20 09:05:00,,0816.1,5.01,0.00,29.0,28.2,00.0,37.9,30.8,09.8,0000.0,0035.23,0010.29,0003.83
2022-04-20 09:06:00,,0816.2,5.00,0.00,29.0,28.2,00.0,37.9,30.8,09.8,0000.0,0035.77,0010.28,0003.83
2022-04-20 09:07:00,,0815.9,5.00,0.00,29.0,28.2,00.0,37.9,30.8,09.7,0000.1,0034.91,0010.22,0003.81
2022-04-20 09:08:00,,0815.8,5.02,0.00,29.0,28.2,00.0,37.9,30.7,09.7,0000.1,0034.50,0010.15,0003.79
2022-04-20 09:09:00,,0815.9,4.99,0.00,28.9,28.1,00.0,37.9,30.7,09.8,0000.0,0034.55,0010.17,0003.78
2022-04-20 09:10:00,,0816.2,5.00,0.00,28.9,28.0,00.0,37.9,30.6,09.9,0000.0,0034.31,0010.18,0003.78
2022-04-20 09:11:00,,0816.3,4.99,0.00,28.9,28.1,00.0,37.9,30.7,10.0,0000.0,0034.57,0010.07,0003.78
2022-04-20 09:12:00,,0816.4,5.01,0.00,28.9,28.1,00.0,37.9,30.7,09.9,0000.0,0034.50,0009.98,0003.76
2022-04-20 09:13:00,,0816.4,5.02,0.00,28.9,28.1,00.0,37.9,30.7,09.9,0000.0,0033.90,0009.77,0003.75
2022-04-20 09:14:00,,0816.4,4.99,0.00,28.9,28.1,00.0,37.9,30.7,10.0,0000.0,0033.81,0009.72,0003.74
2022-04-20 09:15:00,,0816.3,5.02,0.00,28.9,28.1,00.0,37.9,30.7,10.0,0000.0,0033.96,0009.77,0003.75
2022-04-20 09:16:00,,0816.3,5.00,0.00,28.9,28.1,00.0,37.9,30.7,10.0,0000.0,0034.45,0009.79,0003.75
2022-04-20 09:17:00,,0816.2,5.00,0.00,28.9,28.1,00.0,37.9,30.7,10.1,0000.0,0035.26,0009.94,0003.77
2022-04-20 09:18:00,,0816.2,4.99,0.00,28.9,28.1,00.0,37.9,30.7,09.9,0000.0,0036.55,0010.10,0003.79
2022-04-20 09:19:00,,0816.2,4.99,0.00,28.9,28.1,00.0,37.9,30.7,09.8,0000.0,0038.19,0010.20,0003.82
2022-04-20 09:20:00,,0816.1,5.00,0.00,28.9,28.1,00.0,37.9,30.7,09.8,0000.0,0038.19,0010.29,0003.81
2022-04-20 09:21:00,,0816.0,5.01,0.00,29.0,28.2,00.0,37.9,30.8,09.8,0000.0,0037.81,0010.32,0003.81
2022-04-20 09:22:00,,0815.9,5.01,0.00,29.0,28.2,00.0,37.9,30.8,09.8,0003.1,0037.77,0010.36,0003.82
2022-04-20 09:23:00,,0815.8,5.00,0.00,29.0,28.1,00.0,37.9,30.7,09.7,0004.7,0038.16,0010.43,0003.83
2022-04-20 09:24:00,,0815.8,5.01,0.00,29.0,28.1,00.0,37.9,30.7,09.8,0003.3,0039.08,0010.57,0003.85
2022-04-20 09:25:00,,0815.9,5.00,0.00,28.9,28.0,00.0,37.9,30.7,09.8,0000.0,0038.95,0010.64,0003.87
2022-04-20 09:26:00,,0815.9,4.99,0.00,28.9,28.1,00.0,37.9,30.7,09.8,0000.0,0038.99,0010.64,0003.86
2022-04-20 09:27:00,,0815.9,5.02,0.00,28.9,28.1,00.0,37.9,30.7,09.9,0000.0,0038.88,0010.56,0003.85
2022-04-20 09:28:00,,0815.9,4.99,0.00,28.9,28.1,00.0,37.9,30.7,09.9,0000.0,0038.22,0010.41,0003.85
2022-04-20 09:29:00,,0815.8,4.99,0.00,28.9,28.1,00.0,37.9,30.7,09.9,0000.0,0037.39,0010.26,0003.85
2022-04-20 09:30:00,,0815.8,5.01,0.00,28.9,28.1,00.0,37.9,30.7,09.9,0000.0,0035.99,0010.16,0003.84
2022-04-20 09:31:00,,0815.8,5.00,0.00,28.9,28.1,00.0,37.9,30.7,09.8,0000.0,0034.90,0010.05,0003.84
2022-04-20 09:32:00,,0815.7,5.00,0.00,28.9,28.1,00.0,37.9,30.6,09.9,0000.0,0034.51,0009.98,0003.84
2022-04-20 09:33:00,,0815.7,5.01,0.00,28.9,28.0,00.0,37.9,30.6,09.9,0000.0,0033.99,0009.94,0003.84
2022-04-20 09:34:00,,0815.8,4.98,0.00,28.8,28.0,00.0,37.9,30.5,09.9,0000.0,0033.19,0009.87,0003.85
2022-04-20 09:35:00,,0815.9,5.00,0.00,28.8,27.8,00.0,37.8,30.5,10.0,0000.0,0031.51,0009.84,0003.83
2022-04-20 09:36:00,,0816.0,5.00,0.00,28.8,27.7,00.0,37.8,30.4,10.1,0000.0,0031.09,0009.77,0003.81
2022-04-20 09:37:00,,0815.8,4.99,0.00,28.7,27.7,00.0,37.8,30.4,10.0,0000.0,0030.74,0009.65,0003.80
2022-04-20 09:38:00,,0815.7,5.00,0.00,28.7,27.6,00.0,37.8,30.4,10.0,0000.0,0030.49,0009.61,0003.79
2022-04-20 09:39:00,,0815.8,5.00,0.00,28.7,27.6,00.0,37.8,30.4,10.0,0000.0,0030.63,0009.49,0003.76
2022-04-20 09:40:00,,0815.8,4.99,0.00,28.7,27.6,00.0,37.8,30.3,10.0,0000.0,0030.54,0009.43,0003.73
2022-04-20 09:41:00,,0815.7,5.01,0.00,28.6,27.5,00.0,37.7,30.3,10.1,0000.0,0029.39,0009.39,0003.74
2022-04-20 09:42:00,,0815.7,4.98,0.00,28.6,27.5,00.0,37.7,30.3,10.2,0000.0,0029.89,0009.44,0003.74
2022-04-20 09:43:00,,0815.7,5.01,0.00,28.6,27.5,00.0,37.7,30.2,10.2,0000.0,0030.72,0009.37,0003.74
2022-04-20 09:44:00,,0815.8,4.99,0.00,28.6,27.5,00.0,37.7,30.2,10.1,0000.0,0030.62,0009.32,0003.72
2022-04-20 09:45:00,,0815.9,4.99,0.00,28.6,27.5,00.0,37.7,30.3,10.2,0000.0,0031.41,0009.34,0003.70
2022-04-20 09:46:00,,0815.8,5.02,0.00,28.6,27.5,00.0,37.7,30.3,10.2,-001.0,0031.86,0009.32,0003.70
2022-04-20 09:47:00,,0815.8,5.00,0.00,28.6,27.6,00.0,37.6,30.3,10.1,-002.3,0032.32,0009.27,0003.72
2022-04-20 09:48:00,,0815.7,4.99,0.00,28.6,27.6,00.0,37.6,30.3,10.1,-003.4,0032.95,0009.33,0003.72
2022-04-20 09:49:00,,0815.8,5.01,0.00,28.5,27.6,00.0,37.6,30.3,10.1,-003.1,0033.42,0009.28,0003.71
2022-04-20 09:50:00,,0815.8,4.99,0.00,28.5,27.5,00.0,37.6,30.2,10.2,-001.0,0032.71,0009.31,0003.71
2022-04-20 09:51:00,,0815.8,5.00,0.00,28.5,27.5,00.0,37.6,30.2,10.2,0002.1,0032.84,0009.38,0003.72
2022-04-20 09:52:00,,0815.8,5.01,0.00,28.5,27.6,00.0,37.6,30.2,10.2,0003.1,0033.91,0009.35,0003.71
2022-04-20 09:53:00,,0815.7,4.99,0.00,28.5,27.5,00.0,37.5,30.2,10.2,0003.2,0034.09,0009.28,0003.70
2022-04-20 09:54:00,,0815.7,5.01,0.00,28.5,27.5,00.0,37.5,30.2,10.2,0003.4,0034.03,0009.37,0003.70
2022-04-20 09:55:00,,0815.8,5.01,0.00,28.5,27.6,00.0,37.5,30.2,10.2,0002.9,0034.19,0009.38,0003.70
2022-04-20 09:56:00,,0815.8,4.98,0.00,28.5,27.6,00.0,37.5,30.2,10.2,0002.5,0032.99,0009.36,0003.70
2022-04-20 09:57:00,,0816.0,5.00,0.00,28.5,27.6,00.0,37.5,30.2,10.3,0001.6,0033.02,0009.35,0003.71
2022-04-20 09:58:00,,0815.9,5.01,0.00,28.5,27.6,00.0,37.5,30.3,10.3,0000.0,0033.76,0009.35,0003.70
2022-04-20 09:59:00,,0816.0,5.00,0.00,28.5,27.7,00.0,37.5,30.3,10.3,0000.0,0033.02,0009.34,0003.69
